Location: Burleson Alternative School
(32.5290°N, 97.3406°W)
Time: 10:26:46
(UTC+00:00)

Vanguard 2 Rocket - Pass Details

Date: 16 November 2025
Orbit: 553 x 3287 km, 32.9° (Epoch: 07 December)

Event Time Altitude Azimuth Distance (km) Brightness Sun altitude
Rises 23:53:34 0° 252° (WSW) 2,814 12.4 -5.9°
Reaches altitude 10° 23:55:50 10° 249° (WSW) 1,837 10.4 -6.4°
Maximum altitude 23:59:44 69° 167° (SSE) 600 6.0 -7.1°
Drops below altitude 10° 00:04:06 10° 83° (E) 2,049 8.1 -8.0°
Enters shadow 00:04:13 - 83° (E) 2,100 8.1 -8.0°
